Time,TemperatureF,DewpointF,PressureIn,WindDirection,WindDirectionDegrees,WindSpeedMPH,WindSpeedGustMPH,Humidity,HourlyPrecipIn,Conditions,Clouds,dailyrainin,SoftwareType,DateUTC
2013-05-30 00:01:00,77.8,71.9,30.03,East,92,10.4,10.4,82,0.00,RA,,0.00,WeatherDisplay:10.37,2013-05-30 04:01:00,
2013-05-30 00:06:00,77.8,72.2,30.03,ENE,75,11.5,11.5,83,0.00,RA,,0.00,WeatherDisplay:10.37,2013-05-30 04:06:00,
2013-05-30 00:11:00,77.7,72.1,30.03,ESE,107,11.5,11.5,83,0.00,CLR,,0.00,WeatherDisplay:10.37,2013-05-30 04:11:00,
2013-05-30 00:16:00,77.6,72.4,30.03,East,86,11.5,11.5,84,0.00,CLR,,0.00,WeatherDisplay:10.37,2013-05-30 04:16:00,
2013-05-30 00:21:00,77.6,72.4,30.03,East,96,10.4,10.4,84,0.00,CLR,,0.00,WeatherDisplay:10.37,2013-05-30 04:21:00,
2013-05-30 00:26:00,77.7,72.5,30.03,East,96,12.7,12.7,84,0.00,CLR,,0.00,WeatherDisplay:10.37,2013-05-30 04:26:00,
2013-05-30 00:31:00,77.8,72.2,30.03,ENE,73,12.0,12.0,83,0.00,CLR,,0.00,WeatherDisplay:10.37,2013-05-30 04:31:00,
2013-05-30 00:36:00,77.9,72.0,30.03,SE,125,15.0,15.0,82,0.00,CLR,,0.00,WeatherDisplay:10.37,2013-05-30 04:36:00,
2013-05-30 00:41:00,78.0,72.1,30.03,ESE,116,16.1,16.1,82,0.00,CLR,,0.00,WeatherDisplay:10.37,2013-05-30 04:41:00,
2013-05-30 00:46:00,78.0,72.1,30.03,SSE,147,19.6,19.6,82,0.00,CLR,,0.00,WeatherDisplay:10.37,2013-05-30 04:46:00,
2013-05-30 00:51:00,78.0,71.7,30.03,SE,130,10.4,10.4,81,0.00,CLR,,0.00,WeatherDisplay:10.37,2013-05-30 04:51:00,
2013-05-30 00:56:00,78.1,72.2,30.03,SE,134,13.8,13.8,82,0.00,CLR,,0.00,WeatherDisplay:10.37,2013-05-30 04:56:00,
2013-05-30 01:01:00,78.1,72.2,30.03,SE,144,11.5,11.5,82,0.00,CLR,,0.00,WeatherDisplay:10.37,2013-05-30 05:01:00,
2013-05-30 01:06:00,77.9,71.6,30.03,SSE,158,16.1,16.1,81,0.00,CLR,,0.00,WeatherDisplay:10.37,2013-05-30 05:06:00,
2013-05-30 01:11:00,76.7,70.8,30.03,SE,134,25.3,25.3,82,0.00,CLR,,0.00,WeatherDisplay:10.37,2013-05-30 05:11:00,
2013-05-30 01:16:00,75.0,70.2,30.03,SE,146,11.5,11.5,85,0.02,RA,,0.02,WeatherDisplay:10.37,2013-05-30 05:16:00,
2013-05-30 01:21:00,73.7,69.6,30.03,SE,140,15.0,15.0,87,0.03,RA,,0.03,WeatherDisplay:10.37,2013-05-30 05:21:00,
2013-05-30 01:26:00,73.1,69.7,30.03,SSE,147,11.5,11.5,89,0.03,RA,,0.03,WeatherDisplay:10.37,2013-05-30 05:26:00,
2013-05-30 01:31:00,73.0,69.6,30.03,SE,146,11.5,11.5,89,0.03,CLR,,0.03,WeatherDisplay:10.37,2013-05-30 05:31:00,
2013-05-30 01:36:00,73.0,69.9,30.02,SE,132,8.1,8.1,90,0.03,CLR,,0.03,WeatherDisplay:10.37,2013-05-30 05:36:00,
2013-05-30 01:41:00,73.2,69.8,30.02,SE,136,11.5,11.5,89,0.03,CLR,,0.03,WeatherDisplay:10.37,2013-05-30 05:41:00,
2013-05-30 01:46:00,73.5,70.1,30.02,ESE,108,11.5,11.5,89,0.03,CLR,,0.03,WeatherDisplay:10.37,2013-05-30 05:46:00,
2013-05-30 01:51:00,73.7,70.3,30.02,SE,130,10.4,10.4,89,0.03,CLR,,0.03,WeatherDisplay:10.37,2013-05-30 05:51:00,
2013-05-30 01:56:00,73.9,70.5,30.02,SE,136,11.5,11.5,89,0.03,CLR,,0.03,WeatherDisplay:10.37,2013-05-30 05:56:00,
2013-05-30 02:01:00,74.2,71.1,30.02,South,180,10.4,10.4,90,0.03,CLR,,0.03,WeatherDisplay:10.37,2013-05-30 06:01:00,
2013-05-30 02:06:00,74.5,70.4,30.01,SSE,164,12.7,12.7,87,0.03,CLR,,0.03,WeatherDisplay:10.37,2013-05-30 06:06:00,
2013-05-30 02:11:00,74.5,69.7,30.01,SE,140,11.5,11.7,85,0.03,CLR,,0.03,WeatherDisplay:10.37,2013-05-30 06:11:00,
2013-05-30 02:16:00,74.2,69.4,30.01,SE,146,13.8,13.8,85,0.01,CLR,,0.03,WeatherDisplay:10.37,2013-05-30 06:16:00,
2013-05-30 02:21:00,73.9,68.4,30.01,South,184,10.4,10.4,83,0.00,CLR,,0.03,WeatherDisplay:10.37,2013-05-30 06:21:00,
2013-05-30 02:26:00,73.9,68.4,30.00,SE,143,11.5,11.5,83,0.00,CLR,,0.03,WeatherDisplay:10.37,2013-05-30 06:26:00,
2013-05-30 02:31:00,74.0,68.5,30.00,ESE,117,9.2,9.2,83,0.00,CLR,,0.03,WeatherDisplay:10.37,2013-05-30 06:31:00,
2013-05-30 02:36:00,74.0,68.5,30.00,SE,131,5.8,5.8,83,0.00,CLR,,0.03,WeatherDisplay:10.37,2013-05-30 06:36:00,
2013-05-30 02:41:00,74.0,69.2,30.00,ESE,112,4.6,4.6,85,0.00,CLR,,0.03,WeatherDisplay:10.37,2013-05-30 06:41:00,
2013-05-30 02:46:00,74.3,70.5,30.00,SE,139,11.5,11.5,88,0.00,CLR,,0.03,WeatherDisplay:10.37,2013-05-30 06:46:00,
2013-05-30 02:51:00,74.9,70.1,30.00,ESE,108,13.8,13.8,85,0.00,CLR,,0.03,WeatherDisplay:10.37,2013-05-30 06:51:00,
2013-05-30 02:56:00,75.5,70.0,29.99,ESE,113,17.3,17.3,83,0.00,CLR,,0.03,WeatherDisplay:10.37,2013-05-30 06:56:00,
2013-05-30 03:01:00,75.9,70.7,29.99,SE,131,13.8,13.8,84,0.00,CLR,,0.03,WeatherDisplay:10.37,2013-05-30 07:01:00,
2013-05-30 03:06:00,76.0,70.8,29.99,SE,134,13.8,13.8,84,0.00,CLR,,0.03,WeatherDisplay:10.37,2013-05-30 07:06:00,
2013-05-30 03:11:00,75.8,70.3,29.99,SE,135,19.6,19.6,83,0.00,CLR,,0.03,WeatherDisplay:10.37,2013-05-30 07:11:00,
2013-05-30 03:16:00,75.8,70.6,29.99,East,100,16.1,16.1,84,0.00,CLR,,0.03,WeatherDisplay:10.37,2013-05-30 07:16:00,
2013-05-30 03:21:00,75.7,70.9,29.99,ESE,102,13.8,13.8,85,0.00,CLR,,0.03,WeatherDisplay:10.37,2013-05-30 07:21:00,
2013-05-30 03:26:00,75.8,71.3,29.99,ESE,117,15.0,15.0,86,0.00,CLR,,0.03,WeatherDisplay:10.37,2013-05-30 07:26:00,
2013-05-30 03:31:00,76.0,71.2,29.99,East,99,6.9,6.9,85,0.00,CLR,,0.03,WeatherDisplay:10.37,2013-05-30 07:31:00,
2013-05-30 03:36:00,76.2,71.7,29.99,SE,134,9.2,9.2,86,0.00,CLR,,0.03,WeatherDisplay:10.37,2013-05-30 07:36:00,
2013-05-30 03:41:00,76.2,71.7,29.99,SE,130,11.5,11.5,86,0.00,CLR,,0.03,WeatherDisplay:10.37,2013-05-30 07:41:00,
2013-05-30 03:46:00,76.4,71.6,29.99,East,88,12.7,12.7,85,0.00,CLR,,0.03,WeatherDisplay:10.37,2013-05-30 07:46:00,
2013-05-30 03:51:00,76.7,71.5,30.00,SSE,150,20.7,20.7,84,0.01,RA,,0.04,WeatherDisplay:10.37,2013-05-30 07:51:00,
2013-05-30 03:56:00,74.2,70.1,30.00,South,175,17.3,17.3,87,0.05,RA,,0.08,WeatherDisplay:10.37,2013-05-30 07:56:00,
2013-05-30 04:01:00,73.1,69.7,29.99,ESE,116,18.4,18.4,89,0.05,RA,,0.08,WeatherDisplay:10.37,2013-05-30 08:01:00,
2013-05-30 04:06:00,72.9,70.1,29.99,SSE,151,11.5,11.5,91,0.05,,,0.08,WeatherDisplay:10.37,2013-05-30 08:06:00,
2013-05-30 04:11:00,72.8,70.7,30.00,SSE,165,7.0,7.0,93,0.05,CLR,,0.08,WeatherDisplay:10.37,2013-05-30 08:11:00,
2013-05-30 04:16:00,72.9,71.1,29.99,SE,124,5.8,5.8,94,0.05,CLR,,0.08,WeatherDisplay:10.37,2013-05-30 08:16:00,
2013-05-30 04:21:00,73.0,71.2,30.00,SSE,148,8.1,8.1,94,0.05,CLR,,0.08,WeatherDisplay:10.37,2013-05-30 08:21:00,
2013-05-30 04:26:00,73.1,71.3,29.99,SSE,151,6.9,6.9,94,0.05,CLR,,0.08,WeatherDisplay:10.37,2013-05-30 08:26:00,
2013-05-30 04:31:00,73.4,70.9,29.99,ESE,113,7.0,7.0,92,0.05,CLR,,0.08,WeatherDisplay:10.37,2013-05-30 08:31:00,
2013-05-30 04:36:00,73.7,70.9,29.99,ESE,115,6.9,6.9,91,0.05,CLR,,0.08,WeatherDisplay:10.37,2013-05-30 08:36:00,
2013-05-30 04:41:00,73.9,70.8,29.99,SE,129,6.9,6.9,90,0.05,CLR,,0.08,WeatherDisplay:10.37,2013-05-30 08:41:00,
2013-05-30 04:46:00,74.0,70.6,29.99,ESE,104,7.0,7.0,89,0.05,CLR,,0.08,WeatherDisplay:10.37,2013-05-30 08:46:00,
2013-05-30 04:51:00,74.2,70.4,29.99,East,97,10.4,10.4,88,0.05,CLR,,0.08,WeatherDisplay:10.37,2013-05-30 08:51:00,
2013-05-30 04:56:00,74.5,70.0,29.99,East,93,9.2,9.2,86,0.00,CLR,,0.08,WeatherDisplay:10.37,2013-05-30 08:56:00,
2013-05-30 05:01:00,74.7,69.9,30.00,ESE,107,10.4,10.4,85,0.00,CLR,,0.08,WeatherDisplay:10.37,2013-05-30 09:01:00,
2013-05-30 05:06:00,74.9,70.1,30.00,SE,130,11.5,11.5,85,0.00,CLR,,0.08,WeatherDisplay:10.37,2013-05-30 09:06:00,
2013-05-30 05:11:00,75.5,70.0,30.00,SE,133,18.4,18.4,83,0.00,CLR,,0.08,WeatherDisplay:10.37,2013-05-30 09:11:00,
2013-05-30 05:16:00,75.8,70.3,30.00,ESE,121,13.8,13.8,83,0.00,CLR,,0.08,WeatherDisplay:10.37,2013-05-30 09:16:00,
2013-05-30 05:21:00,76.0,70.5,30.00,SE,140,14.0,14.0,83,0.00,CLR,,0.08,WeatherDisplay:10.37,2013-05-30 09:21:00,
2013-05-30 05:26:00,76.2,70.7,30.00,SE,132,11.5,11.5,83,0.00,CLR,,0.08,WeatherDisplay:10.37,2013-05-30 09:26:00,
2013-05-30 05:31:00,76.2,70.3,30.00,ESE,120,12.7,12.7,82,0.00,CLR,,0.08,WeatherDisplay:10.37,2013-05-30 09:31:00,
2013-05-30 05:36:00,76.2,70.3,30.00,ESE,113,15.0,15.0,82,0.00,CLR,,0.08,WeatherDisplay:10.37,2013-05-30 09:36:00,
2013-05-30 05:41:00,76.4,70.5,30.00,East,93,12.7,12.7,82,0.00,CLR,,0.08,WeatherDisplay:10.37,2013-05-30 09:41:00,
2013-05-30 05:46:00,76.3,70.4,30.00,SE,136,12.7,12.7,82,0.00,CLR,,0.08,WeatherDisplay:10.37,2013-05-30 09:46:00,
2013-05-30 05:51:00,76.3,70.8,30.00,SE,128,15.0,15.0,83,0.00,CLR,,0.08,WeatherDisplay:10.37,2013-05-30 09:51:00,
2013-05-30 05:56:00,76.5,70.9,30.00,ESE,115,13.8,13.8,83,0.00,CLR,,0.08,WeatherDisplay:10.37,2013-05-30 09:56:00,
2013-05-30 06:01:00,76.6,71.4,30.00,ESE,115,11.5,11.5,84,0.00,CLR,,0.08,WeatherDisplay:10.37,2013-05-30 10:01:00,
2013-05-30 06:06:00,76.6,71.4,30.00,ESE,107,13.8,13.8,84,0.00,CLR,,0.08,WeatherDisplay:10.37,2013-05-30 10:06:00,
2013-05-30 06:11:00,76.6,71.7,30.00,SE,132,10.4,10.4,85,0.00,CLR,,0.08,WeatherDisplay:10.37,2013-05-30 10:11:00,
2013-05-30 06:16:00,76.5,71.7,30.00,ESE,117,11.5,11.5,85,0.00,CLR,,0.08,WeatherDisplay:10.37,2013-05-30 10:16:00,
2013-05-30 06:21:00,76.7,71.8,30.00,SE,133,11.5,11.5,85,0.00,CLR,,0.08,WeatherDisplay:10.37,2013-05-30 10:21:00,
2013-05-30 06:26:00,76.7,71.8,30.00,ESE,118,10.4,10.4,85,0.00,CLR,,0.08,WeatherDisplay:10.37,2013-05-30 10:26:00,
2013-05-30 06:31:00,76.7,71.8,30.00,ESE,112,11.5,11.5,85,0.00,CLR,,0.08,WeatherDisplay:10.37,2013-05-30 10:31:00,
2013-05-30 06:36:00,76.7,71.8,30.00,SE,140,11.5,11.5,85,0.00,CLR,,0.08,WeatherDisplay:10.37,2013-05-30 10:36:00,
2013-05-30 06:41:00,76.8,71.6,30.00,ESE,103,11.5,11.5,84,0.00,CLR,,0.08,WeatherDisplay:10.37,2013-05-30 10:41:00,
2013-05-30 06:46:00,76.8,71.9,30.00,SE,141,11.5,11.5,85,0.00,CLR,,0.08,WeatherDisplay:10.37,2013-05-30 10:46:00,
2013-05-30 06:51:00,76.9,72.0,30.00,ESE,112,12.7,12.7,85,0.00,CLR,,0.08,WeatherDisplay:10.37,2013-05-30 10:51:00,
2013-05-30 06:56:00,77.0,71.8,30.01,SE,124,12.7,12.7,84,0.00,CLR,,0.08,WeatherDisplay:10.37,2013-05-30 10:56:00,
2013-05-30 07:01:00,77.1,71.9,30.01,East,101,11.5,11.5,84,0.00,CLR,,0.08,WeatherDisplay:10.37,2013-05-30 11:01:00,
2013-05-30 07:06:00,77.1,72.2,30.01,ESE,115,12.7,12.7,85,0.00,CLR,,0.08,WeatherDisplay:10.37,2013-05-30 11:06:00,
2013-05-30 07:11:00,77.1,72.2,30.01,ESE,111,10.4,10.4,85,0.00,CLR,,0.08,WeatherDisplay:10.37,2013-05-30 11:11:00,
2013-05-30 07:16:00,77.3,72.4,30.01,ESE,121,19.6,19.6,85,0.00,CLR,,0.08,WeatherDisplay:10.37,2013-05-30 11:16:00,
2013-05-30 07:21:00,76.0,70.8,30.02,SE,143,19.6,19.6,84,0.06,RA,,0.14,WeatherDisplay:10.37,2013-05-30 11:21:00,
2013-05-30 07:26:00,74.3,69.5,30.02,ESE,123,16.1,16.1,85,0.06,RA,,0.14,WeatherDisplay:10.37,2013-05-30 11:26:00,
2013-05-30 07:31:00,73.7,69.6,30.01,SE,146,13.8,13.8,87,0.06,,,0.14,WeatherDisplay:10.37,2013-05-30 11:31:00,
2013-05-30 07:36:00,73.4,69.3,30.01,SSE,161,11.5,11.5,87,0.06,CLR,,0.14,WeatherDisplay:10.37,2013-05-30 11:36:00,
2013-05-30 07:41:00,73.2,69.4,30.02,ESE,123,11.5,11.5,88,0.06,CLR,,0.14,WeatherDisplay:10.37,2013-05-30 11:41:00,
2013-05-30 07:46:00,73.3,69.9,30.03,SE,126,19.6,19.6,89,0.06,CLR,,0.14,WeatherDisplay:10.37,2013-05-30 11:46:00,
2013-05-30 07:51:00,72.6,69.8,30.04,SE,132,23.0,23.0,91,0.09,RA,,0.17,WeatherDisplay:10.37,2013-05-30 11:51:00,
2013-05-30 07:56:00,71.7,68.6,30.03,ESE,109,19.6,19.6,90,0.09,RA,,0.18,WeatherDisplay:10.37,2013-05-30 11:56:00,
2013-05-30 08:01:00,71.2,68.8,30.03,SE,128,19.6,19.6,92,0.11,RA,,0.19,WeatherDisplay:10.37,2013-05-30 12:01:00,
2013-05-30 08:06:00,71.1,68.3,30.03,ESE,109,12.7,12.7,91,0.12,RA,,0.20,WeatherDisplay:10.37,2013-05-30 12:06:00,
2013-05-30 08:11:00,71.3,68.9,30.03,East,101,11.5,11.5,92,0.13,RA,,0.21,WeatherDisplay:10.37,2013-05-30 12:11:00,
2013-05-30 08:16:00,71.7,69.3,30.03,SE,133,10.4,10.4,92,0.13,RA,,0.21,WeatherDisplay:10.37,2013-05-30 12:16:00,
2013-05-30 08:21:00,72.2,69.7,30.03,ESE,109,6.9,6.9,92,0.07,CLR,,0.21,WeatherDisplay:10.37,2013-05-30 12:21:00,
2013-05-30 08:26:00,72.4,70.3,30.03,East,90,4.6,4.6,93,0.07,CLR,,0.21,WeatherDisplay:10.37,2013-05-30 12:26:00,
2013-05-30 08:31:00,72.7,70.6,30.03,ENE,78,3.5,3.5,93,0.07,CLR,,0.21,WeatherDisplay:10.37,2013-05-30 12:31:00,
2013-05-30 08:36:00,72.9,70.8,30.04,ENE,71,5.0,5.0,93,0.07,CLR,,0.21,WeatherDisplay:10.37,2013-05-30 12:36:00,
2013-05-30 08:41:00,73.5,71.4,30.04,East,96,6.9,6.9,93,0.07,CLR,,0.21,WeatherDisplay:10.37,2013-05-30 12:41:00,
2013-05-30 08:46:00,73.9,71.7,30.04,ENE,74,5.8,5.8,93,0.07,CLR,,0.21,WeatherDisplay:10.37,2013-05-30 12:46:00,
2013-05-30 08:51:00,74.4,72.6,30.04,ESE,106,5.0,5.0,94,0.04,CLR,,0.21,WeatherDisplay:10.37,2013-05-30 12:51:00,
2013-05-30 08:56:00,74.9,73.1,30.04,East,88,5.8,5.8,94,0.04,CLR,,0.21,WeatherDisplay:10.37,2013-05-30 12:56:00,
2013-05-30 09:01:00,75.6,73.4,30.03,East,80,10.4,10.4,93,0.02,CLR,,0.21,WeatherDisplay:10.37,2013-05-30 13:01:00,
2013-05-30 09:06:00,76.0,73.5,30.03,ENE,66,9.2,9.2,92,0.01,CLR,,0.21,WeatherDisplay:10.37,2013-05-30 13:06:00,
2013-05-30 09:11:00,76.4,73.9,30.03,East,97,11.5,11.5,92,0.00,CLR,,0.21,WeatherDisplay:10.37,2013-05-30 13:11:00,
2013-05-30 09:16:00,77.2,73.4,30.03,ESE,116,15.0,15.0,88,0.00,CLR,,0.21,WeatherDisplay:10.37,2013-05-30 13:16:00,
2013-05-30 09:21:00,77.8,73.6,30.03,South,171,15.0,15.0,87,0.00,CLR,,0.21,WeatherDisplay:10.37,2013-05-30 13:21:00,
2013-05-30 09:26:00,78.2,73.7,30.03,ESE,123,19.6,19.6,86,0.00,CLR,,0.21,WeatherDisplay:10.37,2013-05-30 13:26:00,
2013-05-30 09:31:00,76.0,71.8,30.04,SSW,199,23.0,24.0,87,0.00,CLR,,0.22,WeatherDisplay:10.37,2013-05-30 13:31:00,
2013-05-30 09:36:00,73.8,71.0,30.05,ESE,120,19.6,19.6,91,0.10,RA,,0.31,WeatherDisplay:10.37,2013-05-30 13:36:00,
2013-05-30 09:41:00,73.3,71.5,30.05,SSE,155,12.7,12.7,94,0.18,RA,,0.39,WeatherDisplay:10.37,2013-05-30 13:41:00,
2013-05-30 09:46:00,73.3,71.8,30.05,SSE,147,16.1,16.1,95,0.19,RA,,0.40,WeatherDisplay:10.37,2013-05-30 13:46:00,
2013-05-30 09:51:00,73.6,72.1,30.05,SSE,150,13.8,13.8,95,0.19,RA,,0.40,WeatherDisplay:10.37,2013-05-30 13:51:00,
2013-05-30 09:56:00,74.1,72.9,30.05,SE,130,9.2,9.2,96,0.19,CLR,,0.40,WeatherDisplay:10.37,2013-05-30 13:56:00,
2013-05-30 10:01:00,74.8,73.3,30.04,SSE,147,13.8,13.8,95,0.19,CLR,,0.40,WeatherDisplay:10.37,2013-05-30 14:01:00,
2013-05-30 10:06:00,75.3,73.1,30.04,SE,134,13.8,13.8,93,0.19,CLR,,0.40,WeatherDisplay:10.37,2013-05-30 14:06:00,
2013-05-30 10:11:00,75.5,72.0,30.04,ESE,106,17.3,17.3,89,0.19,CLR,,0.40,WeatherDisplay:10.37,2013-05-30 14:11:00,
2013-05-30 10:16:00,75.8,72.0,30.04,ESE,115,12.7,12.7,88,0.20,RA,,0.41,WeatherDisplay:10.37,2013-05-30 14:16:00,
2013-05-30 10:21:00,76.1,72.6,30.04,East,100,11.5,11.5,89,0.20,RA,,0.41,WeatherDisplay:10.37,2013-05-30 14:21:00,
2013-05-30 10:26:00,76.7,73.5,30.04,ESE,102,13.8,13.8,90,0.20,CLR,,0.41,WeatherDisplay:10.37,2013-05-30 14:26:00,
2013-05-30 10:31:00,77.6,74.1,30.04,ESE,103,17.3,17.3,89,0.20,CLR,,0.41,WeatherDisplay:10.37,2013-05-30 14:31:00,
2013-05-30 10:36:00,78.0,74.2,30.05,ESE,103,15.0,15.0,88,0.10,CLR,,0.41,WeatherDisplay:10.37,2013-05-30 14:36:00,
2013-05-30 10:41:00,77.9,73.4,30.05,ESE,107,17.3,17.3,86,0.02,CLR,,0.41,WeatherDisplay:10.37,2013-05-30 14:41:00,
2013-05-30 10:46:00,78.1,73.6,30.05,ESE,111,18.4,18.4,86,0.01,CLR,,0.41,WeatherDisplay:10.37,2013-05-30 14:46:00,
2013-05-30 10:51:00,78.2,73.0,30.05,SSE,159,18.4,18.4,84,0.01,CLR,,0.41,WeatherDisplay:10.37,2013-05-30 14:51:00,
2013-05-30 10:56:00,78.1,72.9,30.05,ESE,119,16.1,16.1,84,0.01,CLR,,0.41,WeatherDisplay:10.37,2013-05-30 14:56:00,
2013-05-30 11:01:00,76.7,71.8,30.06,ESE,115,23.0,23.0,85,0.01,CLR,,0.42,WeatherDisplay:10.37,2013-05-30 15:01:00,
2013-05-30 11:06:00,74.9,71.8,30.06,SSE,148,17.3,17.3,90,0.11,RA,,0.51,WeatherDisplay:10.37,2013-05-30 15:06:00,
2013-05-30 11:11:00,74.2,71.7,30.06,East,92,10.4,10.4,92,0.11,RA,,0.51,WeatherDisplay:10.37,2013-05-30 15:11:00,
2013-05-30 11:16:00,74.3,72.1,30.06,SE,126,11.5,11.5,93,0.10,,,0.51,WeatherDisplay:10.37,2013-05-30 15:16:00,
2013-05-30 11:21:00,74.7,72.5,30.06,ESE,115,13.8,13.8,93,0.10,CLR,,0.51,WeatherDisplay:10.37,2013-05-30 15:21:00,
2013-05-30 11:26:00,75.1,72.6,30.05,ESE,109,11.5,11.5,92,0.10,CLR,,0.51,WeatherDisplay:10.37,2013-05-30 15:26:00,
2013-05-30 11:31:00,75.4,72.9,30.06,ESE,110,11.5,11.5,92,0.10,CLR,,0.51,WeatherDisplay:10.37,2013-05-30 15:31:00,
2013-05-30 11:36:00,75.7,72.9,30.05,SE,146,16.1,16.1,91,0.10,CLR,,0.51,WeatherDisplay:10.37,2013-05-30 15:36:00,
2013-05-30 11:41:00,75.8,72.7,30.06,East,91,11.5,11.5,90,0.10,CLR,,0.51,WeatherDisplay:10.37,2013-05-30 15:41:00,
2013-05-30 11:46:00,76.0,72.5,30.06,East,96,17.3,17.3,89,0.10,CLR,,0.51,WeatherDisplay:10.37,2013-05-30 15:46:00,
2013-05-30 11:51:00,76.1,72.6,30.06,NE,56,11.5,11.5,89,0.10,CLR,,0.51,WeatherDisplay:10.37,2013-05-30 15:51:00,
2013-05-30 11:56:00,75.5,72.7,30.06,East,98,10.4,10.4,91,0.10,CLR,,0.51,WeatherDisplay:10.37,2013-05-30 15:56:00,
2013-05-30 12:01:00,75.0,71.9,30.06,East,84,16.1,16.1,90,0.09,CLR,,0.51,WeatherDisplay:10.37,2013-05-30 16:01:00,
2013-05-30 12:06:00,74.9,72.1,30.06,ENE,74,12.7,12.7,91,0.00,CLR,,0.51,WeatherDisplay:10.37,2013-05-30 16:06:00,
2013-05-30 12:11:00,74.9,72.4,30.05,ESE,104,12.7,12.7,92,0.00,CLR,,0.51,WeatherDisplay:10.37,2013-05-30 16:11:00,
2013-05-30 12:16:00,75.0,72.5,30.05,ESE,117,19.6,19.6,92,0.01,RA,,0.52,WeatherDisplay:10.37,2013-05-30 16:16:00,
2013-05-30 12:21:00,75.0,72.5,30.05,East,86,18.4,18.4,92,0.03,RA,,0.54,WeatherDisplay:10.37,2013-05-30 16:21:00,
2013-05-30 12:26:00,74.2,72.0,30.05,ESE,112,11.5,11.5,93,0.06,RA,,0.57,WeatherDisplay:10.37,2013-05-30 16:26:00,
2013-05-30 12:31:00,74.2,72.4,30.05,East,98,12.0,12.0,94,0.06,RA,,0.57,WeatherDisplay:10.37,2013-05-30 16:31:00,
2013-05-30 12:36:00,74.4,72.9,30.04,East,85,10.4,10.4,95,0.06,CLR,,0.57,WeatherDisplay:10.37,2013-05-30 16:36:00,
2013-05-30 12:38:00,74.6,73.1,30.05,ENE,73,10.4,10.4,95,0.06,CLR,,0.57,WeatherDisplay:10.37,2013-05-30 16:38:00,
2013-05-30 12:39:00,74.7,73.2,30.04,ESE,113,11.5,11.5,95,0.06,CLR,,0.57,WeatherDisplay:10.37,2013-05-30 16:39:00,
2013-05-30 12:44:00,75.1,73.6,30.04,ENE,73,10.4,10.4,95,0.06,CLR,,0.57,WeatherDisplay:10.37,2013-05-30 16:44:00,
2013-05-30 12:49:00,75.5,73.3,30.05,East,94,15.0,15.0,93,0.07,RA,,0.58,WeatherDisplay:10.37,2013-05-30 16:49:00,
2013-05-30 12:54:00,75.7,73.2,30.04,East,89,14.0,14.0,92,0.07,RA,,0.58,WeatherDisplay:10.37,2013-05-30 16:54:00,
2013-05-30 12:59:00,75.8,73.0,30.04,ESE,103,15.0,15.0,91,0.07,CLR,,0.58,WeatherDisplay:10.37,2013-05-30 16:59:00,
2013-05-30 13:04:00,75.8,73.0,30.04,SE,140,12.7,12.7,91,0.07,CLR,,0.58,WeatherDisplay:10.37,2013-05-30 17:04:00,
2013-05-30 13:09:00,75.5,72.7,30.04,ESE,118,12.7,12.7,91,0.07,CLR,,0.58,WeatherDisplay:10.37,2013-05-30 17:09:00,
2013-05-30 13:14:00,75.4,72.6,30.04,SE,144,9.2,9.2,91,0.06,CLR,,0.58,WeatherDisplay:10.37,2013-05-30 17:14:00,
2013-05-30 13:19:00,75.5,73.0,30.04,ESE,111,9.2,9.2,92,0.06,CLR,,0.58,WeatherDisplay:10.37,2013-05-30 17:19:00,
2013-05-30 13:24:00,75.7,73.2,30.04,East,98,6.9,6.9,92,0.01,CLR,,0.58,WeatherDisplay:10.37,2013-05-30 17:24:00,
2013-05-30 13:29:00,76.1,73.6,30.03,ENE,74,10.4,10.4,92,0.01,CLR,,0.58,WeatherDisplay:10.37,2013-05-30 17:29:00,
2013-05-30 13:34:00,76.5,73.7,30.03,East,86,10.4,10.4,91,0.01,CLR,,0.58,WeatherDisplay:10.37,2013-05-30 17:34:00,
2013-05-30 13:39:00,77.0,72.8,30.03,East,88,19.6,19.6,87,0.01,CLR,,0.58,WeatherDisplay:10.37,2013-05-30 17:39:00,
2013-05-30 13:44:00,77.5,73.3,30.03,East,86,11.5,11.5,87,0.01,CLR,,0.58,WeatherDisplay:10.37,2013-05-30 17:44:00,
2013-05-30 13:49:00,77.9,73.4,30.03,East,82,15.0,15.0,86,0.00,CLR,,0.58,WeatherDisplay:10.37,2013-05-30 17:49:00,
2013-05-30 13:54:00,78.4,73.5,30.03,East,100,15.0,15.0,85,0.00,CLR,,0.58,WeatherDisplay:10.37,2013-05-30 17:54:00,
2013-05-30 13:59:00,78.2,73.3,30.02,ENE,78,15.0,15.0,85,0.00,CLR,,0.58,WeatherDisplay:10.37,2013-05-30 17:59:00,
2013-05-30 14:04:00,78.4,73.5,30.02,ESE,113,20.7,20.7,85,0.00,CLR,,0.58,WeatherDisplay:10.37,2013-05-30 18:04:00,
2013-05-30 14:09:00,78.8,71.7,30.03,East,96,21.9,21.9,79,0.00,CLR,,0.58,WeatherDisplay:10.37,2013-05-30 18:09:00,
2013-05-30 14:14:00,78.8,72.8,30.03,SE,128,20.0,20.0,82,0.00,CLR,,0.58,WeatherDisplay:10.37,2013-05-30 18:14:00,
2013-05-30 14:19:00,78.7,72.7,30.03,East,88,17.3,17.3,82,0.00,CLR,,0.58,WeatherDisplay:10.37,2013-05-30 18:19:00,
2013-05-30 14:24:00,78.9,72.9,30.03,ESE,121,18.4,18.4,82,0.00,CLR,,0.58,WeatherDisplay:10.37,2013-05-30 18:24:00,
2013-05-30 14:29:00,79.2,73.2,30.02,ENE,61,21.9,21.9,82,0.00,CLR,,0.58,WeatherDisplay:10.37,2013-05-30 18:29:00,
2013-05-30 14:34:00,79.2,72.9,30.02,SE,124,20.7,20.7,81,0.00,CLR,,0.58,WeatherDisplay:10.37,2013-05-30 18:34:00,
2013-05-30 14:39:00,79.1,72.4,30.02,SE,135,21.9,21.9,80,0.00,CLR,,0.58,WeatherDisplay:10.37,2013-05-30 18:39:00,
2013-05-30 14:44:00,77.4,72.5,30.02,SE,141,20.7,20.7,85,0.00,CLR,,0.58,WeatherDisplay:10.37,2013-05-30 18:44:00,
2013-05-30 14:49:00,76.7,72.9,30.02,East,94,13.8,13.8,88,0.00,CLR,,0.58,WeatherDisplay:10.37,2013-05-30 18:49:00,
2013-05-30 14:54:00,76.5,73.3,30.02,ENE,78,13.8,13.8,90,0.00,CLR,,0.58,WeatherDisplay:10.37,2013-05-30 18:54:00,
2013-05-30 14:59:00,76.6,73.1,30.02,East,81,11.5,11.5,89,0.00,CLR,,0.58,WeatherDisplay:10.37,2013-05-30 18:59:00,
2013-05-30 15:04:00,77.4,73.9,30.02,ENE,63,15.0,15.0,89,0.00,CLR,,0.58,WeatherDisplay:10.37,2013-05-30 19:04:00,
2013-05-30 15:09:00,78.6,73.4,30.01,East,81,13.8,13.8,84,0.00,CLR,,0.58,WeatherDisplay:10.37,2013-05-30 19:09:00,
2013-05-30 15:14:00,79.4,73.4,30.01,East,90,19.6,19.6,82,0.00,CLR,,0.58,WeatherDisplay:10.37,2013-05-30 19:14:00,
2013-05-30 15:19:00,79.8,73.4,30.01,ESE,107,18.4,18.4,81,0.00,CLR,,0.58,WeatherDisplay:10.37,2013-05-30 19:19:00,
2013-05-30 15:24:00,79.7,72.6,30.01,ESE,109,18.4,18.4,79,0.00,CLR,,0.58,WeatherDisplay:10.37,2013-05-30 19:24:00,
2013-05-30 15:29:00,79.9,72.8,30.01,SE,130,19.6,19.6,79,0.00,CLR,,0.58,WeatherDisplay:10.37,2013-05-30 19:29:00,
2013-05-30 15:34:00,80.0,72.5,30.01,SE,130,25.3,25.3,78,0.00,CLR,,0.58,WeatherDisplay:10.37,2013-05-30 19:34:00,
2013-05-30 15:39:00,80.4,72.9,30.01,East,94,18.4,18.4,78,0.00,CLR,,0.58,WeatherDisplay:10.37,2013-05-30 19:39:00,
2013-05-30 15:44:00,80.0,72.1,30.01,SE,129,20.7,20.7,77,0.00,CLR,,0.58,WeatherDisplay:10.37,2013-05-30 19:44:00,
2013-05-30 15:49:00,79.8,72.7,30.01,East,87,20.7,20.7,79,0.00,CLR,,0.58,WeatherDisplay:10.37,2013-05-30 19:49:00,
2013-05-30 15:54:00,80.2,73.5,30.00,ENE,74,15.0,15.0,80,0.00,CLR,,0.58,WeatherDisplay:10.37,2013-05-30 19:54:00,
2013-05-30 15:59:00,80.8,74.0,30.00,ESE,115,20.7,20.7,80,0.00,CLR,,0.58,WeatherDisplay:10.37,2013-05-30 19:59:00,
2013-05-30 16:04:00,80.6,73.1,30.00,SE,140,19.6,19.6,78,0.00,CLR,,0.58,WeatherDisplay:10.37,2013-05-30 20:04:00,
2013-05-30 16:09:00,80.3,72.4,30.00,ESE,103,21.9,21.9,77,0.00,CLR,,0.58,WeatherDisplay:10.37,2013-05-30 20:09:00,
2013-05-30 16:14:00,80.3,72.0,30.00,ESE,104,21.9,21.9,76,0.00,CLR,,0.58,WeatherDisplay:10.37,2013-05-30 20:14:00,
2013-05-30 16:19:00,80.1,72.6,30.00,ENE,66,16.1,16.1,78,0.00,CLR,,0.58,WeatherDisplay:10.37,2013-05-30 20:19:00,
2013-05-30 16:24:00,80.0,71.0,30.00,East,84,21.9,21.9,74,0.00,CLR,,0.58,WeatherDisplay:10.37,2013-05-30 20:24:00,
2013-05-30 16:29:00,79.6,70.2,30.00,ESE,107,20.7,20.7,73,0.00,CLR,,0.58,WeatherDisplay:10.37,2013-05-30 20:29:00,
2013-05-30 16:34:00,79.3,70.7,30.00,ESE,113,23.0,23.0,75,0.00,CLR,,0.58,WeatherDisplay:10.37,2013-05-30 20:34:00,
2013-05-30 16:39:00,79.4,71.2,29.99,ENE,71,21.9,21.9,76,0.00,CLR,,0.58,WeatherDisplay:10.37,2013-05-30 20:39:00,
2013-05-30 16:44:00,79.5,71.3,29.99,ESE,111,18.4,18.4,76,0.00,CLR,,0.58,WeatherDisplay:10.37,2013-05-30 20:44:00,
2013-05-30 16:49:00,79.6,70.6,29.99,ESE,105,21.9,21.9,74,0.00,CLR,,0.58,WeatherDisplay:10.37,2013-05-30 20:49:00,
2013-05-30 16:54:00,79.4,71.2,29.99,SE,137,15.0,15.0,76,0.00,CLR,,0.58,WeatherDisplay:10.37,2013-05-30 20:54:00,
2013-05-30 16:59:00,79.7,71.5,29.99,East,83,17.3,17.3,76,0.00,CLR,,0.58,WeatherDisplay:10.37,2013-05-30 20:59:00,
2013-05-30 17:04:00,80.0,71.0,29.99,ENE,71,24.2,24.2,74,0.00,CLR,,0.58,WeatherDisplay:10.37,2013-05-30 21:04:00,
2013-05-30 17:09:00,79.9,70.5,29.98,ESE,117,21.0,21.0,73,0.00,CLR,,0.58,WeatherDisplay:10.37,2013-05-30 21:09:00,
2013-05-30 17:14:00,79.9,70.5,29.98,ESE,107,20.7,20.7,73,0.00,CLR,,0.58,WeatherDisplay:10.37,2013-05-30 21:14:00,
2013-05-30 17:19:00,80.1,69.8,29.98,East,92,19.6,19.6,71,0.00,CLR,,0.58,WeatherDisplay:10.37,2013-05-30 21:19:00,
2013-05-30 17:24:00,80.0,69.7,29.98,ENE,71,26.5,26.5,71,0.00,CLR,,0.58,WeatherDisplay:10.37,2013-05-30 21:24:00,
2013-05-30 17:29:00,79.9,70.5,29.98,ESE,117,20.7,20.7,73,0.00,CLR,,0.58,WeatherDisplay:10.37,2013-05-30 21:29:00,
2013-05-30 17:34:00,79.7,70.3,29.98,East,99,19.6,19.6,73,0.00,CLR,,0.58,WeatherDisplay:10.37,2013-05-30 21:34:00,
2013-05-30 17:39:00,79.7,70.7,29.98,ESE,111,21.9,21.9,74,0.00,CLR,,0.58,WeatherDisplay:10.37,2013-05-30 21:39:00,
2013-05-30 17:44:00,79.5,70.9,29.98,SE,144,25.3,25.3,75,0.00,CLR,,0.58,WeatherDisplay:10.37,2013-05-30 21:44:00,
2013-05-30 17:49:00,79.3,71.5,29.98,East,87,15.0,15.0,77,0.00,CLR,,0.58,WeatherDisplay:10.37,2013-05-30 21:49:00,
2013-05-30 17:54:00,79.4,71.6,29.98,SE,135,15.0,15.0,77,0.00,CLR,,0.58,WeatherDisplay:10.37,2013-05-30 21:54:00,
2013-05-30 17:59:00,79.3,71.8,29.98,East,94,19.6,19.6,78,0.00,CLR,,0.58,WeatherDisplay:10.37,2013-05-30 21:59:00,
2013-05-30 18:04:00,79.2,72.1,29.98,ESE,105,18.4,18.4,79,0.00,CLR,,0.58,WeatherDisplay:10.37,2013-05-30 22:04:00,
2013-05-30 18:09:00,79.2,71.7,29.98,East,90,20.7,20.7,78,0.00,CLR,,0.58,WeatherDisplay:10.37,2013-05-30 22:09:00,
2013-05-30 18:14:00,79.1,72.0,29.98,ESE,106,19.6,19.6,79,0.00,CLR,,0.58,WeatherDisplay:10.37,2013-05-30 22:14:00,
2013-05-30 18:19:00,79.0,72.3,29.98,SSE,150,19.6,19.6,80,0.00,CLR,,0.58,WeatherDisplay:10.37,2013-05-30 22:19:00,
2013-05-30 18:24:00,78.9,72.2,29.99,East,90,19.6,19.6,80,0.00,CLR,,0.58,WeatherDisplay:10.37,2013-05-30 22:24:00,
2013-05-30 18:29:00,78.8,71.7,29.99,ESE,123,18.4,18.4,79,0.00,CLR,,0.58,WeatherDisplay:10.37,2013-05-30 22:29:00,
2013-05-30 18:34:00,78.8,71.4,29.99,ESE,117,17.3,17.3,78,0.00,CLR,,0.58,WeatherDisplay:10.37,2013-05-30 22:34:00,
2013-05-30 18:39:00,78.8,70.6,29.99,SE,130,20.7,20.7,76,0.00,CLR,,0.58,WeatherDisplay:10.37,2013-05-30 22:39:00,
2013-05-30 18:44:00,78.7,70.9,29.99,ESE,123,12.7,12.7,77,0.00,CLR,,0.58,WeatherDisplay:10.37,2013-05-30 22:44:00,
2013-05-30 18:49:00,78.7,71.3,29.99,East,92,18.4,18.4,78,0.00,CLR,,0.58,WeatherDisplay:10.37,2013-05-30 22:49:00,
2013-05-30 18:54:00,78.7,71.6,29.99,ESE,111,11.5,11.5,79,0.00,CLR,,0.58,WeatherDisplay:10.37,2013-05-30 22:54:00,
2013-05-30 18:59:00,77.9,72.0,29.99,ESE,108,13.8,13.8,82,0.01,RA,,0.59,WeatherDisplay:10.37,2013-05-30 22:59:00,
2013-05-30 19:04:00,77.3,71.7,29.99,ESE,117,12.7,12.7,83,0.01,RA,,0.59,WeatherDisplay:10.37,2013-05-30 23:04:00,
2013-05-30 19:09:00,77.4,71.5,30.00,SE,144,16.1,16.1,82,0.01,CLR,,0.59,WeatherDisplay:10.37,2013-05-30 23:09:00,
2013-05-30 19:14:00,77.5,71.6,30.00,SE,130,15.0,15.0,82,0.01,CLR,,0.59,WeatherDisplay:10.37,2013-05-30 23:14:00,
2013-05-30 19:19:00,77.7,71.8,30.00,ESE,119,12.7,12.7,82,0.01,CLR,,0.59,WeatherDisplay:10.37,2013-05-30 23:19:00,
2013-05-30 19:24:00,77.8,71.9,30.00,ESE,107,20.7,20.7,82,0.01,CLR,,0.59,WeatherDisplay:10.37,2013-05-30 23:24:00,
2013-05-30 19:29:00,77.9,71.6,30.00,SE,145,17.3,17.3,81,0.01,CLR,,0.59,WeatherDisplay:10.37,2013-05-30 23:29:00,
2013-05-30 19:34:00,78.0,70.6,30.01,SE,128,19.6,19.6,78,0.01,CLR,,0.59,WeatherDisplay:10.37,2013-05-30 23:34:00,
2013-05-30 19:39:00,78.1,69.9,30.01,East,93,15.0,15.0,76,0.01,CLR,,0.59,WeatherDisplay:10.37,2013-05-30 23:39:00,
2013-05-30 19:44:00,78.0,69.8,30.01,SE,139,13.8,13.8,76,0.01,CLR,,0.59,WeatherDisplay:10.37,2013-05-30 23:44:00,
2013-05-30 19:49:00,78.1,70.3,30.01,East,101,19.6,19.6,77,0.01,CLR,,0.59,WeatherDisplay:10.37,2013-05-30 23:49:00,
2013-05-30 19:54:00,78.0,70.2,30.01,East,98,12.7,12.7,77,0.01,CLR,,0.59,WeatherDisplay:10.37,2013-05-30 23:54:00,
2013-05-30 19:59:00,77.8,70.4,30.01,ESE,109,17.3,17.3,78,0.00,CLR,,0.59,WeatherDisplay:10.37,2013-05-30 23:59:00,
2013-05-30 20:04:00,77.8,70.8,30.01,ESE,113,12.7,12.7,79,0.00,CLR,,0.59,WeatherDisplay:10.37,2013-05-31 00:04:00,
2013-05-30 20:09:00,77.7,70.3,30.01,East,98,19.6,19.6,78,0.00,CLR,,0.59,WeatherDisplay:10.37,2013-05-31 00:09:00,
2013-05-30 20:14:00,77.7,70.3,30.01,SE,125,13.8,13.8,78,0.00,CLR,,0.59,WeatherDisplay:10.37,2013-05-31 00:14:00,
2013-05-30 20:19:00,77.6,69.8,30.02,SE,140,16.1,16.1,77,0.00,CLR,,0.59,WeatherDisplay:10.37,2013-05-31 00:19:00,
2013-05-30 20:24:00,77.6,69.8,30.02,ESE,117,16.1,16.1,77,0.00,CLR,,0.59,WeatherDisplay:10.37,2013-05-31 00:24:00,
2013-05-30 20:29:00,77.6,69.8,30.02,ESE,115,16.1,16.1,77,0.00,CLR,,0.59,WeatherDisplay:10.37,2013-05-31 00:29:00,
2013-05-30 20:34:00,77.7,69.9,30.02,East,94,18.4,18.4,77,0.00,CLR,,0.59,WeatherDisplay:10.37,2013-05-31 00:34:00,
2013-05-30 20:39:00,77.6,70.2,30.02,SE,129,15.0,15.0,78,0.00,CLR,,0.59,WeatherDisplay:10.37,2013-05-31 00:39:00,
2013-05-30 20:44:00,77.5,70.1,30.02,ESE,107,17.3,17.3,78,0.00,CLR,,0.59,WeatherDisplay:10.37,2013-05-31 00:44:00,
2013-05-30 20:49:00,77.6,70.2,30.02,ESE,105,11.5,11.5,78,0.00,CLR,,0.59,WeatherDisplay:10.37,2013-05-31 00:49:00,
2013-05-30 20:54:00,77.6,69.8,30.02,ESE,109,13.8,13.8,77,0.00,CLR,,0.59,WeatherDisplay:10.37,2013-05-31 00:54:00,
2013-05-30 20:59:00,77.7,69.9,30.02,SE,130,16.1,16.1,77,0.00,CLR,,0.59,WeatherDisplay:10.37,2013-05-31 00:59:00,
2013-05-30 21:04:00,77.7,69.9,30.02,SE,140,11.5,11.5,77,0.00,CLR,,0.59,WeatherDisplay:10.37,2013-05-31 01:04:00,
2013-05-30 21:09:00,77.7,69.9,30.03,ESE,111,16.0,16.0,77,0.00,CLR,,0.59,WeatherDisplay:10.37,2013-05-31 01:09:00,
2013-05-30 21:14:00,77.7,69.9,30.03,ESE,117,17.3,17.3,77,0.00,CLR,,0.59,WeatherDisplay:10.37,2013-05-31 01:14:00,
2013-05-30 21:19:00,77.6,69.4,30.03,SE,146,13.8,13.8,76,0.00,CLR,,0.59,WeatherDisplay:10.37,2013-05-31 01:19:00,
2013-05-30 21:24:00,77.7,69.5,30.03,SE,127,16.1,16.1,76,0.00,CLR,,0.59,WeatherDisplay:10.37,2013-05-31 01:24:00,
2013-05-30 21:29:00,77.9,69.3,30.03,East,92,15.0,15.0,75,0.00,CLR,,0.59,WeatherDisplay:10.37,2013-05-31 01:29:00,
2013-05-30 21:34:00,77.9,69.7,30.03,ESE,123,18.4,18.4,76,0.00,CLR,,0.59,WeatherDisplay:10.37,2013-05-31 01:34:00,
2013-05-30 21:39:00,77.9,70.1,30.03,SE,130,15.0,15.0,77,0.00,CLR,,0.59,WeatherDisplay:10.37,2013-05-31 01:39:00,
2013-05-30 21:44:00,77.8,70.0,30.03,ENE,78,19.6,19.6,77,0.00,CLR,,0.59,WeatherDisplay:10.37,2013-05-31 01:44:00,
2013-05-30 21:49:00,77.8,70.4,30.03,East,95,17.3,17.3,78,0.00,CLR,,0.59,WeatherDisplay:10.37,2013-05-31 01:49:00,
2013-05-30 21:54:00,77.8,70.4,30.03,East,84,16.1,16.1,78,0.00,CLR,,0.59,WeatherDisplay:10.37,2013-05-31 01:54:00,
2013-05-30 21:59:00,77.9,70.5,30.03,East,96,19.6,19.6,78,0.00,CLR,,0.59,WeatherDisplay:10.37,2013-05-31 01:59:00,
2013-05-30 22:04:00,77.9,71.2,30.03,ENE,78,11.5,11.5,80,0.00,CLR,,0.59,WeatherDisplay:10.37,2013-05-31 02:04:00,
2013-05-30 22:09:00,77.8,71.1,30.03,East,94,15.0,15.0,80,0.00,CLR,,0.59,WeatherDisplay:10.37,2013-05-31 02:09:00,
2013-05-30 22:14:00,77.8,70.8,30.03,SE,132,11.5,11.5,79,0.00,CLR,,0.59,WeatherDisplay:10.37,2013-05-31 02:14:00,
2013-05-30 22:19:00,77.8,71.1,30.03,SE,144,19.6,19.6,80,0.00,CLR,,0.59,WeatherDisplay:10.37,2013-05-31 02:19:00,
2013-05-30 22:24:00,77.7,71.0,30.04,ENE,76,19.6,19.6,80,0.00,CLR,,0.59,WeatherDisplay:10.37,2013-05-31 02:24:00,
2013-05-30 22:29:00,77.1,71.2,30.04,East,101,20.7,20.7,82,0.00,CLR,,0.59,WeatherDisplay:10.37,2013-05-31 02:29:00,
2013-05-30 22:34:00,76.9,71.0,30.04,East,94,16.0,16.0,82,0.00,CLR,,0.59,WeatherDisplay:10.37,2013-05-31 02:34:00,
2013-05-30 22:39:00,75.6,71.1,30.04,East,96,15.0,15.0,86,0.02,RA,,0.61,WeatherDisplay:10.37,2013-05-31 02:39:00,
2013-05-30 22:44:00,74.6,71.1,30.04,East,92,16.1,16.1,89,0.02,RA,,0.61,WeatherDisplay:10.37,2013-05-31 02:44:00,
2013-05-30 22:49:00,74.5,71.0,30.04,East,80,16.1,16.1,89,0.02,,,0.61,WeatherDisplay:10.37,2013-05-31 02:49:00,
2013-05-30 22:54:00,74.8,71.3,30.04,ESE,110,12.7,12.7,89,0.02,CLR,,0.61,WeatherDisplay:10.37,2013-05-31 02:54:00,
2013-05-30 22:59:00,75.1,71.6,30.04,East,101,11.5,11.5,89,0.02,CLR,,0.61,WeatherDisplay:10.37,2013-05-31 02:59:00,
2013-05-30 23:04:00,75.4,71.6,30.04,ESE,122,20.0,20.0,88,0.02,CLR,,0.61,WeatherDisplay:10.37,2013-05-31 03:04:00,
2013-05-30 23:31:00,76.1,70.9,30.03,SE,138,13.8,13.8,84,0.03,CLR,,0.62,WeatherDisplay:10.37,2013-05-31 03:31:00,
2013-05-30 23:36:00,76.2,71.0,30.04,ESE,113,12.7,12.7,84,0.03,CLR,,0.62,WeatherDisplay:10.37,2013-05-31 03:36:00,
2013-05-30 23:41:00,76.4,70.9,30.04,ESE,120,18.4,18.4,83,0.01,CLR,,0.62,WeatherDisplay:10.37,2013-05-31 03:41:00,
2013-05-30 23:46:00,76.5,70.6,30.04,SE,138,13.8,13.8,82,0.01,CLR,,0.62,WeatherDisplay:10.37,2013-05-31 03:46:00,
2013-05-30 23:51:00,76.4,70.9,30.04,ESE,123,18.4,18.4,83,0.01,CLR,,0.62,WeatherDisplay:10.37,2013-05-31 03:51:00,
2013-05-30 23:56:00,76.7,70.8,30.04,ESE,112,16.1,16.1,82,0.01,CLR,,0.62,WeatherDisplay:10.37,2013-05-31 03:56:00,